Location: Dunedin
(45.8670°S, 170.5000°E)
Time: 18:43:18
(UTC+13:00)

Lacrosse 5 rocket - Pass Details

Date: 24 January 2019
Orbit: 459 x 639 km, 57.0° (Epoch: 18 October)

Event Time Altitude Azimuth Distance (km) Brightness Sun altitude
Rises 22:37:25 0° 232° (SW) 2,591 6.9 -11.7°
Reaches altitude 10° 22:40:10 10° 211° (SSW) 1,680 5.2 -12.0°
Maximum altitude 22:42:48 18° 167° (SSE) 1,253 3.6 -12.3°
Drops below altitude 10° 22:45:22 10° 122° (ESE) 1,643 3.6 -12.7°
Enters shadow 22:47:16 - 106° (ESE) 2,240 4.2 -12.9°
